Date,TemperatureHighF,TemperatureAvgF,TemperatureLowF,DewpointHighF,DewpointAvgF,DewpointLowF,HumidityHigh,HumidityAvg,HumidityLow,PressureMaxIn,PressureMinIn,WindSpeedMaxMPH,WindSpeedAvgMPH,GustSpeedMaxMPH,PrecipitationSumIn
2013-11-1,46.1,32.3,21.0,37.9,28.2,19.1,99,85,67,29.90,29.46,6,0,7,0.00
2013-11-2,50.1,33.9,21.1,39.6,29.5,19.1,99,85,66,30.00,29.90,4,0,5,0.00
2013-11-3,49.4,42.7,33.7,38.6,35.2,29.4,84,75,63,29.93,29.61,8,0,10,0.00
2013-11-4,47.4,38.2,27.9,39.0,31.9,23.1,84,78,69,29.87,29.57,14,2,18,0.01
2013-11-5,31.1,29.0,26.0,23.3,22.4,20.4,82,76,72,30.13,30.02,12,3,16,0.00
2013-11-6,37.8,27.2,16.3,27.9,21.8,12.9,86,80,59,30.18,30.10,3,0,4,0.00
2013-11-7,36.4,26.2,14.5,26.7,19.8,11.1,86,77,57,30.21,30.06,6,0,10,0.00
2013-11-8,39.4,28.7,18.4,33.3,25.6,14.9,99,88,70,30.06,29.67,6,0,6,0.06
2013-11-9,36.0,33.4,29.9,34.2,31.2,25.7,99,91,84,30.22,29.67,6,1,12,0.02
2013-11-10,29.9,21.9,9.6,26.3,16.5,5.2,89,79,60,30.45,30.07,9,1,11,0.00
2013-11-11,17.2,11.0,6.5,11.6,6.5,3.0,87,82,74,30.75,30.45,5,0,7,0.00
2013-11-12,38.3,22.6,6.9,30.5,17.8,3.5,87,82,71,30.70,29.99,11,2,13,0.00
2013-11-13,51.4,36.7,26.4,37.7,28.7,22.5,88,75,43,29.99,29.67,12,2,16,0.00
2013-11-14,36.3,32.7,29.0,31.9,29.7,25.4,95,89,83,29.82,29.68,2,0,2,0.02
2013-11-15,46.1,35.7,28.3,40.4,32.3,26.3,95,87,79,29.71,29.33,16,3,19,0.00
2013-11-16,37.3,32.3,24.5,34.8,30.3,23.0,96,92,88,29.42,29.29,8,0,12,0.02
2013-11-17,31.3,25.5,20.9,30.6,23.1,18.3,99,90,88,29.96,29.42,10,1,12,0.20
2013-11-18,23.0,18.7,16.0,19.2,15.7,13.2,96,88,83,30.23,29.95,5,0,5,0.00
2013-11-19,35.0,27.9,18.4,30.1,24.3,16.0,90,86,81,30.15,29.54,8,1,14,0.01
2013-11-20,29.8,21.3,13.3,26.9,17.0,10.2,89,83,76,30.32,29.57,10,1,10,0.06
2013-11-21,13.2,7.2,0.2,10.3,4.1,-2.5,89,87,83,30.62,30.32,8,1,10,0.01
2013-11-22,11.2,6.1,-4.6,8.4,2.9,-7.3,89,86,82,30.91,30.41,10,1,11,0.00
2013-11-23,6.2,-2.7,-11.0,3.4,-5.9,-13.3,99,86,75,30.96,30.51,8,1,13,0.00
2013-11-24,34.3,18.6,6.3,30.3,15.5,3.3,96,87,85,30.51,29.66,16,4,25,0.01
2013-11-25,34.2,25.2,13.4,30.2,20.9,9.5,89,84,78,30.18,29.72,9,2,15,0.01
2013-11-26,16.8,10.1,1.4,12.0,6.8,-1.3,88,86,81,30.51,30.18,8,1,10,0.00
2013-11-27,18.5,13.1,3.9,15.3,10.1,1.1,89,88,87,30.45,30.07,9,1,14,0.16
2013-11-28,14.2,8.8,0.1,11.3,6.0,-2.5,99,88,87,30.53,30.19,4,0,4,0.00
2013-11-29,21.5,14.2,-0.1,18.2,11.2,-2.5,99,88,86,30.51,30.03,4,0,8,0.00
2013-11-30,21.6,20.8,20.0,18.3,17.6,16.9,90,87,87,30.26,30.04,2,0,3,0.00